DECAYED

DMSP 5D-2 F13 DEB, 40522 (Decayed)

Orbit data source: Space-Track

DMSP 5D-2 F13 DEB, 40522 was space debris in SSO originally from a launch on Fri, 24 Mar 1995 UTC launched from the Air Force Western Test Range (AFWTR). Debris objects in space refer to the collection of defunct objects orbiting the Earth. Examples of debris include non-operational satellites, rocket bodies, and fragments generated from explosions, collisions, or faulty payload assembly.

Not visible in the next 10 days
Identifier
40522, 1995-015DJ
Orbit
Decayed
Country
Flag of USUS
Related business
Manufacturer
Unknown
Mission
Decayed spacecraft
Bus & Motor
Unknown
Mass
Unknown
Launch date (UTC)
1995-03-24 (31 years ago)
Launch vehicle
Unknown
Launch site
Air Force Western Test Range (AFWTR)
Object type
Payload
Rocket body
Debris
Shape & HBR
Unknown shape, 0.1 m
Radar Cross Section
Medium (>0.1 m² and <1 m²)

Expand to show TLE details & history
Last TLE update: 1 year ago

TLE from 1 year ago
0 DMSP 5D-2 F13 DEB
1 40522U 95015DJ  25106.14614684  .00348849  00000-0  22258-1 0  9997
2 40522  98.6914 174.0392 0010780 226.1405 133.8929 15.06868505525173
Epoch: 2025-04-16T03:30Z
TLE epoch observation values (Epoch: 2025-04-16T03:30:27.086Z)
Latitude
-0.00007°
Longitude
-83.11024°
Altitude
553.989 km
Speed
7.582 km/s
True Right ascension
11h 36m 09s
True Declination
0° 00' 00"
Sunlit
Object was in full shadow at epoch
Visualization orbit readout
Latitude
Unknown
Longitude
Unknown
Altitude
Unknown
Speed
Unknown
Apparent Right ascension
Unknown
Apparent Declination
Unknown
Sunlit
N/A
Visualization observer readout
Local Sidereal Time
16:33:19
Azimuth
Unknown
Elevation
Unknown
Doppler factor
Unknown
Orbital elements
Apogee altitude
550.279 km
Perigee altitude
535.358 km
Semi-major axis
6,920.956 km
Eccentricity
0.00108
Inclination
98.6914°
RAAN
174.0392°
Arg. of periapsis
226.1405°
True anomaly
133.98184°
Mean anomaly
133.8929°
Eccentric anomaly
133.93738°
Mean motion
3.76959 °/min
Orbital period
95.5 mins
BSTAR
0.022258
Loading maneuver chart data...
Computing Atmospheric mass density...

Documentation

Showing up to 5 results
|